Find Starlink 30993

NORAD ID: 58489 Int'l Des: 2023-186 Owner: SPXS Country: US Constellation: starlink operational
LEOCIRCULAR

Live-Position

3D-Globus wird geladen...

Über Starlink 30993

Beschreibung wird geladen...

Nächste Überflüge

Passes for default location (London). Set your location on the main map for personalized predictions.

Höhenverlauf

Loading altitude history...

Zweizeiliger Elementsatz

1 58489U 23186S 26122.29425141 -.00001615 00000-0 -49209-4 0 9998
2 58489 42.9994 120.9713 0000747 266.9400 93.1367 15.27571336134086
Epoch: 2. Mai 2026 • Age: 14 hours

Aktueller Status

Höhe 485.0 km
Geschwindigkeit 7.63 km/s
Subsatellitenpunkt 35.31°N, 15.7°W
Startdatum 3. Dez. 2023
Alter 2.4 years
Typ internet

Technische Details

Klassifizierung Payload
Masse 730.00 kg
Trockenmasse 700.00 kg
Gesamtmasse 730.00 kg
Länge 0.30 m
Durchmesser 4.10 m
Spannweite 29.00 m
Form Box + pan
Hersteller SPXS
Bus-Typ Starlink V2M
Phasenstatus In Orbit
Besitzer/Staat SPXS/US

Most Searched